This is the latest recevied weather packets stored in our database for station/object N7WSS. If no packets are shown the sender has not sent any weather packets the latest 10 day(s).
| Time | Temp. | Humidity | Pressure | Rain* | Wind** | Luminosity | Snow |
|---|---|---|---|---|---|---|---|
| 1787468816 | 32.22° C | 33% | 1013.8 hPa | 0 mm | - | - | - |
| 1787468512 | 31.67° C | 34% | 1014.2 hPa | 0 mm | - | - | - |
| 1787468212 | 31.67° C | 35% | 1014.5 hPa | 0 mm | - | - | - |
| 1787467909 | 31.67° C | 35% | 1014.9 hPa | 0 mm | - | - | - |
| 1787467603 | 31.67° C | 36% | 1014.9 hPa | 0 mm | - | - | - |
| 1787467299 | 31.11° C | 37% | 1014.9 hPa | 0 mm | - | - | - |
| 1787466995 | 32.22° C | 35% | 1015 hPa | 0 mm | - | - | - |
| 1787466691 | 32.22° C | 34% | 1015.1 hPa | 0 mm | - | - | - |
| 1787466386 | 32.22° C | 34% | 1014.9 hPa | 0 mm | - | - | - |
| 1787466082 | 32.22° C | 33% | 1015 hPa | 0 mm | - | - | - |
| 1787465777 | 32.22° C | 33% | 1015.1 hPa | 0 mm | - | - | - |
| 1787465472 | 32.22° C | 33% | 1015.2 hPa | 0 mm | - | - | - |
| 1787465172 | 32.22° C | 33% | 1015 hPa | 0 mm | - | - | - |
| 1787464869 | 32.22° C | 33% | 1015 hPa | 0 mm | - | - | - |
| 1787464564 | 32.22° C | 33% | 1015.2 hPa | 0 mm | - | - | - |
| 1787464260 | 32.22° C | 33% | 1015.2 hPa | 0 mm | - | - | - |
| 1787463956 | 32.22° C | 34% | 1015.3 hPa | 0 mm | - | - | - |
| 1787463651 | 32.22° C | 34% | 1015.4 hPa | 0 mm | - | - | - |
| 1787463346 | 32.78° C | 32% | 1015.4 hPa | 0 mm | - | - | - |
| 1787463043 | 32.78° C | 31% | 1014.9 hPa | 0 mm | - | - | - |
| 1787462739 | 32.78° C | 30% | 1015.2 hPa | 0 mm | - | - | - |
| 1787462435 | 32.22° C | 32% | 1015.1 hPa | 0 mm | - | - | - |
| 1787462131 | 32.22° C | 33% | 1015.1 hPa | 0 mm | - | - | - |
| 1787461827 | 32.22° C | 34% | 1015.1 hPa | 0 mm | - | - | - |
| 1787461527 | 31.11° C | 36% | 1014.9 hPa | 0 mm | - | - | - |
* Rain latest hour (hover to see other rain measurements)
** Current wind speed in m/s (hover to see current wind gust speed)